TimeCDT,TemperatureF,Dew PointF,Humidity,Sea Level PressureIn,VisibilityMPH,Wind Direction,Wind SpeedMPH,Gust SpeedMPH,PrecipitationIn,Events,Conditions,WindDirDegrees,DateUTC
12:53 AM,69.1,64.0,84,29.69,10.0,NNE,15.0,-,N/A,,Overcast,20,2013-06-01 05:53:00
1:07 AM,69.8,64.4,83,29.76,10.0,NNE,16.1,-,N/A,,Overcast,20,2013-06-01 06:07:00
1:53 AM,70.0,63.0,78,29.68,10.0,NNE,16.1,-,N/A,,Overcast,20,2013-06-01 06:53:00
2:53 AM,70.0,62.1,76,29.70,10.0,North,12.7,-,N/A,,Overcast,10,2013-06-01 07:53:00
3:53 AM,70.0,60.1,71,29.70,10.0,NNE,13.8,-,N/A,,Scattered Clouds,30,2013-06-01 08:53:00
4:53 AM,64.9,60.1,84,29.73,10.0,North,11.5,-,N/A,,Clear,10,2013-06-01 09:53:00
5:53 AM,64.9,61.0,87,29.77,10.0,North,11.5,-,N/A,,Mostly Cloudy,360,2013-06-01 10:53:00
6:53 AM,64.0,51.1,63,29.82,10.0,North,26.5,35.7,N/A,,Clear,10,2013-06-01 11:53:00
7:53 AM,64.0,45.0,50,29.89,10.0,North,27.6,32.2,N/A,,Clear,10,2013-06-01 12:53:00
8:53 AM,66.0,45.0,47,29.92,10.0,North,24.2,33.4,N/A,,Clear,360,2013-06-01 13:53:00
9:53 AM,69.1,44.1,40,29.95,10.0,North,24.2,32.2,N/A,,Clear,360,2013-06-01 14:53:00
10:53 AM,73.0,44.1,35,29.96,10.0,North,18.4,31.1,N/A,,Clear,350,2013-06-01 15:53:00
11:53 AM,75.9,43.0,31,29.97,10.0,NNW,20.7,27.6,N/A,,Clear,340,2013-06-01 16:53:00
12:53 PM,79.0,44.1,29,29.96,10.0,NNW,15.0,24.2,N/A,,Clear,340,2013-06-01 17:53:00
1:53 PM,82.0,42.1,24,29.96,10.0,North,18.4,26.5,N/A,,Clear,10,2013-06-01 18:53:00
2:53 PM,82.9,43.0,24,29.95,10.0,North,16.1,23.0,N/A,,Clear,360,2013-06-01 19:53:00
3:53 PM,84.0,42.1,23,29.94,10.0,North,11.5,19.6,N/A,,Clear,350,2013-06-01 20:53:00
4:53 PM,84.0,39.0,20,29.93,10.0,NNW,11.5,26.5,N/A,,Clear,330,2013-06-01 21:53:00
5:53 PM,84.0,39.9,21,29.94,10.0,NW,11.5,20.7,N/A,,Clear,310,2013-06-01 22:53:00
6:53 PM,82.9,39.0,21,29.94,10.0,NNW,18.4,23.0,N/A,,Clear,330,2013-06-01 23:53:00
7:53 PM,79.0,42.1,27,29.96,10.0,North,12.7,-,N/A,,Clear,360,2013-06-02 00:53:00
8:53 PM,73.0,48.0,41,29.99,10.0,North,11.5,-,N/A,,Clear,10,2013-06-02 01:53:00
9:53 PM,66.9,51.1,57,30.02,10.0,NNE,6.9,-,N/A,,Clear,20,2013-06-02 02:53:00
10:53 PM,64.0,52.0,65,30.04,10.0,North,6.9,-,N/A,,Clear,10,2013-06-02 03:53:00
11:53 PM,61.0,52.0,72,30.05,10.0,North,9.2,-,N/A,,Clear,10,2013-06-02 04:53:00